Date,TemperatureHighF,TemperatureAvgF,TemperatureLowF,DewpointHighF,DewpointAvgF,DewpointLowF,HumidityHigh,HumidityAvg,HumidityLow,PressureMaxIn,PressureMinIn,WindSpeedMaxMPH,WindSpeedAvgMPH,GustSpeedMaxMPH,PrecipitationSumIn
2012-1-1,53.0,43.8,30.0,48.0,39.8,29.0,95,86,61,0.00,40.00,18,6,27,0.07
2012-1-2,52.0,42.4,31.0,49.0,25.6,13.0,92,54,31,0.00,40.00,11,7,27,0.07
2012-1-3,32.0,26.3,17.0,19.0,9.5,-3.0,83,51,32,0.00,40.00,12,7,24,0.00
2012-1-4,29.0,20.2,10.0,16.0,0.3,-9.0,59,42,24,0.00,40.00,10,5,23,0.00
2012-1-5,39.0,31.2,25.0,21.0,12.7,7.0,58,46,38,0.00,40.00,8,4,19,0.00
2012-1-6,52.0,40.6,28.0,41.0,28.8,12.0,80,63,49,0.00,40.00,13,6,24,0.00
2012-1-7,55.0,44.0,31.0,42.0,37.2,29.0,94,79,50,0.00,40.00,9,4,16,0.00
2012-1-8,47.0,38.4,29.0,31.0,22.7,13.0,82,54,38,0.00,40.00,8,5,17,0.00
2012-1-9,42.0,33.6,26.0,28.0,18.2,13.0,67,53,36,0.00,40.00,9,5,16,0.00
2012-1-10,49.0,40.1,26.0,31.0,25.7,22.0,88,58,38,0.00,40.00,12,5,25,0.00
2012-1-11,45.0,37.0,25.0,34.0,26.1,20.0,83,65,46,0.00,40.00,13,6,22,0.00
2012-1-12,45.0,42.8,39.0,43.0,39.9,34.0,94,90,70,0.00,40.00,23,13,40,1.81
2012-1-13,54.0,40.7,31.0,49.0,31.3,11.0,97,71,43,0.00,40.00,19,12,40,0.06
2012-1-14,38.0,31.3,24.0,17.0,12.1,6.0,55,45,35,0.00,40.00,12,8,29,0.00
2012-1-15,24.0,16.7,11.0,7.0,-3.5,-7.0,49,41,27,0.00,40.00,12,8,23,0.00
2012-1-16,41.0,22.9,8.0,33.0,8.6,-5.0,91,54,39,0.00,40.00,17,8,32,0.14
2012-1-17,48.0,42.5,33.0,47.0,38.9,31.0,95,87,75,0.00,40.00,14,9,29,0.38
2012-1-18,53.0,39.0,24.0,46.0,20.2,1.0,91,49,30,0.00,40.00,14,9,29,0.02
2012-1-19,37.0,26.7,15.0,33.0,13.6,1.0,92,58,36,0.00,40.00,14,7,30,0.19
2012-1-20,35.0,29.6,22.0,33.0,16.7,3.0,92,61,34,0.00,40.00,10,6,25,0.25
2012-1-21,24.0,22.8,21.0,21.0,16.0,4.0,90,77,45,0.00,40.00,16,10,28,0.01
2012-1-22,31.0,24.2,15.0,22.0,16.2,10.0,82,71,63,0.00,40.00,10,7,21,0.01
2012-1-23,50.0,40.3,30.0,50.0,36.4,21.0,99,86,70,0.00,40.00,12,6,25,0.18
2012-1-24,51.0,47.3,39.0,51.0,43.2,32.0,100,86,64,0.00,40.00,12,7,25,0.20
2012-1-25,45.0,38.7,33.0,32.0,25.1,22.0,78,58,45,0.00,40.00,11,5,23,0.00
2012-1-26,42.0,36.5,32.0,40.0,29.4,25.0,93,76,59,0.00,40.00,9,4,16,0.08
2012-1-27,53.0,47.2,42.0,53.0,44.8,31.0,99,92,62,0.00,40.00,12,8,27,0.69
2012-1-28,46.0,41.9,32.0,37.0,29.9,25.0,78,63,47,0.00,40.00,12,7,25,0.02
2012-1-29,44.0,39.7,35.0,37.0,19.5,10.0,76,45,27,0.00,40.00,13,8,24,0.00
2012-1-30,44.0,36.3,23.0,28.0,16.6,9.0,73,46,27,0.00,40.00,13,8,28,0.00
2012-1-31,51.0,42.4,26.0,40.0,30.7,19.0,85,64,41,0.00,40.00,13,6,23,0.00
2012-2-1,59.0,48.5,44.0,44.0,40.2,33.0,86,73,52,0.00,40.00,11,6,24,0.04
2012-2-2,46.0,38.4,31.0,33.0,29.9,27.0,88,73,52,0.00,40.00,15,6,23,0.01
2012-2-3,43.0,32.6,26.0,28.0,14.2,6.0,83,50,22,0.00,40.00,11,6,21,0.00
2012-2-4,47.0,38.1,29.0,23.0,19.9,13.0,68,49,34,0.00,40.00,10,5,22,0.00
2012-2-5,37.0,30.1,25.0,16.0,12.3,8.0,64,48,36,0.00,40.00,8,5,15,0.00
2012-2-6,46.0,37.8,22.0,34.0,25.2,13.0,73,61,46,0.00,40.00,13,7,26,0.00
2012-2-7,50.0,40.2,27.0,33.0,25.4,20.0,88,58,38,0.00,40.00,9,5,19,0.00
2012-2-8,39.0,31.9,26.0,29.0,16.4,7.0,87,54,26,0.00,40.00,7,4,13,0.00
2012-2-9,49.0,35.4,27.0,29.0,19.7,12.0,91,59,23,0.00,40.00,8,4,19,0.00
2012-2-10,47.0,37.3,22.0,39.0,27.1,15.0,89,68,42,0.00,40.00,10,6,20,0.08
2012-2-11,40.0,34.7,32.0,37.0,30.5,19.0,94,86,55,0.00,40.00,9,5,20,0.22
2012-2-12,33.0,25.8,19.0,19.0,3.4,-6.0,55,38,28,0.00,40.00,15,10,35,0.01
2012-2-13,42.0,32.8,18.0,25.0,16.7,1.0,62,51,42,0.00,40.00,14,8,30,0.00
2012-2-14,45.0,36.3,29.0,27.0,20.6,15.0,85,54,33,0.00,40.00,6,3,16,0.00
2012-2-15,49.0,40.1,31.0,41.0,36.1,27.0,95,86,68,0.00,40.00,6,2,20,0.02
2012-2-16,45.0,38.4,32.0,40.0,30.7,27.0,89,74,59,0.00,40.00,10,4,16,0.04
2012-2-17,52.0,43.6,27.0,45.0,35.6,21.0,97,76,40,0.00,40.00,10,5,18,0.09
2012-2-18,47.0,37.2,26.0,31.0,24.1,19.0,82,61,32,0.00,40.00,13,6,25,0.01
2012-2-19,47.0,35.6,27.0,31.0,25.3,18.0,91,69,32,0.00,40.00,12,5,20,0.00
2012-2-20,45.0,34.7,23.0,25.0,11.2,4.0,71,40,19,0.00,40.00,13,8,28,0.00
2012-2-21,44.0,33.3,18.0,40.0,21.8,11.0,94,64,41,0.00,40.00,12,5,25,0.13
2012-2-22,52.0,45.0,37.0,43.0,38.9,34.0,96,81,54,0.00,40.00,11,6,21,0.13
2012-2-23,59.0,47.6,28.0,45.0,36.3,22.0,93,69,32,0.00,40.00,16,6,26,0.00
2012-2-24,43.0,36.5,28.0,42.0,33.9,23.0,96,90,75,0.00,40.00,11,7,19,0.92
2012-2-25,47.0,40.7,33.0,39.0,21.1,13.0,96,48,26,0.00,40.00,17,11,37,0.22
2012-2-26,43.0,33.4,25.0,15.0,5.7,0.0,54,33,17,0.00,40.00,14,7,31,0.00
2012-2-27,49.0,38.5,20.0,39.0,27.0,4.0,82,64,37,0.00,40.00,14,7,25,0.00
2012-2-28,51.0,43.1,35.0,38.0,21.4,17.0,79,43,26,0.00,40.00,12,7,29,0.00
2012-2-29,40.0,35.8,32.0,36.0,27.2,18.0,94,73,51,0.00,40.00,16,9,27,0.27
2012-3-1,41.0,37.5,30.0,39.0,35.0,25.0,95,91,82,0.00,40.00,17,12,27,0.60
2012-3-2,39.0,32.9,27.0,34.0,26.1,23.0,85,76,65,0.00,40.00,12,8,22,0.02
2012-3-3,50.0,44.9,39.0,49.0,41.6,34.0,97,89,66,0.00,40.00,14,8,24,0.20
2012-3-4,44.0,38.4,30.0,34.0,23.2,18.0,81,56,36,0.00,40.00,5,2,12,0.01
2012-3-5,45.0,34.2,27.0,23.0,12.5,0.0,74,44,21,0.00,40.00,11,6,24,0.00
2012-3-6,42.0,29.8,20.0,24.0,8.6,-6.0,61,42,13,0.00,40.00,10,6,20,0.00
2012-3-7,52.0,45.8,36.0,43.0,36.3,24.0,87,70,57,0.00,40.00,14,11,27,0.00
2012-3-8,56.0,51.5,47.0,47.0,45.5,43.0,88,80,67,0.00,40.00,15,12,28,0.00
2012-3-9,53.0,42.8,34.0,48.0,28.7,16.0,88,60,29,0.00,40.00,16,8,29,0.14
2012-3-10,41.0,34.3,25.0,25.0,16.1,9.0,75,48,38,0.00,40.00,13,7,23,0.04
2012-3-11,50.0,43.5,36.0,39.0,29.3,21.0,87,58,44,0.00,40.00,13,10,25,0.00
2012-3-12,58.0,47.5,35.0,43.0,38.8,32.0,89,73,49,0.00,40.00,10,6,18,0.00
2012-3-13,51.0,48.0,45.0,48.0,45.8,43.0,98,92,86,0.00,40.00,8,6,16,0.01
2012-3-14,67.0,50.0,40.0,52.0,41.5,25.0,99,79,20,0.00,40.00,12,6,23,0.03
2012-3-15,48.0,42.7,40.0,39.0,36.7,35.0,90,80,64,0.00,40.00,9,7,14,0.00
2012-3-16,44.0,41.5,38.0,41.0,36.9,33.0,94,84,77,0.00,40.00,7,5,13,0.00
2012-3-17,54.0,46.7,35.0,45.0,41.5,34.0,96,83,63,0.00,40.00,9,4,13,0.00
2012-3-18,54.0,42.6,32.0,45.0,40.2,31.0,97,92,72,0.00,40.00,11,5,20,0.00
2012-3-19,63.0,50.7,38.0,51.0,45.9,37.0,98,85,64,0.00,40.00,9,5,17,0.00
2012-3-20,61.0,50.2,40.0,53.0,47.3,38.0,98,90,75,0.00,40.00,8,3,11,0.00
2012-3-21,64.0,53.9,48.0,63.0,52.1,47.0,100,94,76,0.00,40.00,8,3,12,0.00
2012-3-22,61.0,55.9,51.0,57.0,53.3,50.0,100,91,76,0.00,40.00,12,6,23,0.00
2012-3-23,66.0,58.6,53.0,58.0,47.9,38.0,97,70,46,0.00,40.00,9,5,16,0.00
2012-3-24,56.0,51.5,46.0,41.0,34.0,22.0,76,53,28,0.00,40.00,12,7,20,0.00
2012-3-25,49.0,46.4,43.0,43.0,38.2,33.0,82,73,63,0.00,40.00,12,8,20,0.01
2012-3-26,58.0,43.8,33.0,44.0,24.5,3.0,96,54,19,0.00,40.00,17,9,36,0.01
2012-3-27,50.0,37.0,28.0,3.0,-2.3,-7.0,30,20,9,0.00,40.00,13,8,29,0.00
2012-3-28,51.0,43.8,29.0,47.0,33.7,3.0,96,70,27,0.00,40.00,16,7,28,0.32
2012-3-29,52.0,47.4,41.0,47.0,36.9,26.0,97,69,46,0.00,40.00,13,6,26,0.05
2012-3-30,55.0,43.9,31.0,35.0,24.3,14.0,78,49,19,0.00,40.00,11,5,21,0.00
2012-3-31,46.0,40.4,32.0,37.0,35.4,30.0,92,83,63,0.00,40.00,12,7,19,0.18
2012-4-1,49.0,40.7,30.0,38.0,33.2,28.0,95,76,52,0.00,40.00,12,6,19,0.11
2012-4-2,55.0,45.1,41.0,42.0,30.7,8.0,95,64,20,0.00,40.00,14,10,27,0.30
2012-4-3,62.0,45.1,26.0,21.0,12.0,5.0,71,30,12,0.00,40.00,12,6,26,0.00
2012-4-4,67.0,53.5,38.0,31.0,21.7,8.0,55,32,12,0.00,40.00,13,6,27,0.00
2012-4-5,55.0,46.0,37.0,31.0,26.2,22.0,72,48,29,0.00,40.00,10,6,21,0.00
2012-4-6,51.0,40.8,30.0,32.0,24.8,18.0,81,55,27,0.00,40.00,11,5,16,0.00
2012-4-7,58.0,43.3,33.0,33.0,20.8,13.0,65,43,21,0.00,40.00,13,7,23,0.00
2012-4-8,57.0,46.5,37.0,42.0,31.1,20.0,86,58,24,0.00,40.00,9,5,20,0.00
2012-4-9,60.0,50.4,36.0,42.0,30.3,23.0,90,49,27,0.00,40.00,14,7,29,0.00
2012-4-10,58.0,49.2,34.0,43.0,34.8,22.0,89,59,32,0.00,40.00,13,7,22,0.00
2012-4-11,60.0,46.0,34.0,40.0,32.9,29.0,94,64,31,0.00,40.00,12,5,21,0.00
2012-4-12,56.0,44.6,34.0,42.0,37.4,31.0,94,77,45,0.00,40.00,12,5,23,0.22
2012-4-13,58.0,47.7,37.0,43.0,36.9,26.0,93,69,29,0.00,40.00,14,7,21,0.07
2012-4-14,62.0,51.1,34.0,47.0,36.8,28.0,84,61,30,0.00,40.00,12,5,20,0.00
2012-4-15,64.0,55.3,50.0,53.0,48.0,-99.9,91,79,60,0.00,40.00,9,6,17,0.01
2012-4-16,64.0,56.1,50.0,53.0,51.2,48.0,96,84,66,0.00,40.00,9,5,13,0.01
2012-4-17,85.0,66.7,48.0,58.0,38.2,22.0,97,51,12,0.00,40.00,11,5,21,0.00
2012-4-18,63.0,56.1,50.0,46.0,34.5,15.0,80,49,18,0.00,40.00,12,8,27,0.00
2012-4-19,58.0,52.1,48.0,49.0,46.0,44.0,92,80,69,0.00,40.00,11,6,16,0.00
2012-4-20,60.0,53.5,42.0,52.0,48.2,41.0,96,83,64,0.00,40.00,9,5,14,0.00
2012-4-21,57.0,55.0,53.0,55.0,52.7,48.0,98,93,81,0.00,40.00,9,5,14,0.00
2012-4-22,61.0,53.4,46.0,61.0,50.9,-99.9,100,95,89,0.00,40.00,19,8,31,1.16
2012-4-23,56.0,52.9,46.0,55.0,50.3,43.0,98,92,78,0.00,40.00,18,12,31,1.92
2012-4-24,56.0,50.9,45.0,47.0,39.3,34.0,88,65,50,0.00,40.00,18,14,29,0.01
2012-4-25,60.0,50.4,38.0,46.0,39.7,29.0,96,69,36,0.00,40.00,12,6,22,0.00
2012-4-26,57.0,47.4,34.0,51.0,40.0,31.0,98,78,45,0.00,40.00,10,5,16,0.00
2012-4-27,59.0,51.4,39.0,54.0,34.5,21.0,100,57,30,0.00,40.00,13,9,28,0.00
2012-4-28,56.0,47.0,37.0,40.0,26.5,17.0,70,46,24,0.00,40.00,14,7,27,0.00
2012-4-29,62.0,49.9,36.0,40.0,18.5,-99.9,79,34,13,0.00,40.00,11,5,26,0.00
2012-4-30,55.0,46.4,29.0,39.0,25.8,13.0,78,47,24,0.00,40.00,11,7,18,0.00
2012-5-1,53.0,50.2,47.0,52.0,46.1,39.0,99,87,65,0.00,40.00,13,9,31,0.73
2012-5-2,57.0,50.6,46.0,49.0,45.8,42.0,91,84,70,0.00,40.00,11,8,20,0.01
2012-5-3,51.0,49.6,48.0,50.0,47.9,46.0,98,94,90,0.00,40.00,7,5,13,0.17
2012-5-4,55.0,51.9,49.0,54.0,51.6,48.0,100,99,94,0.00,40.00,7,4,12,0.07
2012-5-5,54.0,51.8,49.0,53.0,51.5,49.0,100,99,93,0.00,40.00,5,3,7,0.01
2012-5-6,58.0,52.3,44.0,51.0,47.3,-99.9,100,87,68,0.00,40.00,9,5,14,0.00
2012-5-7,61.0,52.8,42.0,51.0,47.4,42.0,100,83,67,0.00,40.00,9,5,15,0.00
2012-5-8,56.0,54.1,52.0,54.0,50.1,47.0,95,86,74,0.00,40.00,15,9,24,0.00
2012-5-9,58.0,55.6,54.0,58.0,55.6,54.0,100,100,95,0.00,40.00,9,5,17,2.45
2012-5-10,65.0,57.4,50.0,56.0,50.7,38.0,100,80,53,0.00,40.00,11,6,21,0.99
2012-5-11,63.0,54.2,43.0,49.0,41.0,35.0,94,63,36,0.00,40.00,13,6,27,0.01
2012-5-12,68.0,57.2,40.0,49.0,41.2,33.0,94,57,41,0.00,40.00,12,6,20,0.00
2012-5-13,67.0,56.5,48.0,55.0,50.2,-99.9,98,83,63,0.00,40.00,9,4,17,0.00
2012-5-14,65.0,59.4,54.0,58.0,55.1,53.0,98,86,76,0.00,40.00,8,5,16,0.00
2012-5-15,62.0,58.6,56.0,60.0,55.9,54.0,100,91,78,0.00,40.00,14,6,20,0.11
2012-5-16,63.0,58.9,55.0,62.0,58.4,55.0,100,98,89,0.00,40.00,7,5,18,0.60
2012-5-17,67.0,58.4,49.0,57.0,48.9,43.0,100,74,41,0.00,40.00,9,6,19,0.05
2012-5-18,68.0,55.6,42.0,52.0,45.0,36.0,100,73,31,0.00,40.00,9,4,15,0.00
2012-5-19,73.0,57.5,43.0,51.0,44.7,40.0,99,67,36,0.00,40.00,12,5,19,0.00
2012-5-20,70.0,58.2,46.0,50.0,43.6,-99.9,99,66,29,0.00,40.00,10,5,17,0.00
2012-5-21,63.0,59.0,54.0,62.0,57.7,48.0,100,95,77,0.00,40.00,10,7,17,0.04
2012-5-22,66.0,63.1,60.0,65.0,62.4,60.0,100,97,92,0.00,40.00,10,6,17,0.72
2012-5-23,72.0,65.2,58.0,63.0,61.5,58.0,100,89,71,0.00,40.00,7,4,12,0.01
2012-5-24,69.0,59.8,54.0,62.0,58.1,54.0,100,94,78,0.00,40.00,8,5,13,0.00
2012-5-25,65.0,60.9,56.0,63.0,60.4,56.0,100,98,93,0.00,40.00,8,5,12,0.05
2012-5-26,73.0,65.0,60.0,68.0,63.5,60.0,100,95,83,0.00,40.00,8,4,13,0.01
2012-5-27,79.0,68.1,61.0,65.0,60.9,-99.9,100,84,58,0.00,40.00,9,5,16,0.00
2012-5-28,74.0,67.1,61.0,69.0,65.3,61.0,100,94,81,0.00,40.00,8,5,12,0.00
2012-5-29,75.0,66.8,62.0,68.0,65.0,62.0,100,94,79,0.00,40.00,10,5,15,0.00
2012-5-30,74.0,66.9,59.0,70.0,65.2,59.0,100,94,83,0.00,40.00,5,2,10,0.02
2012-5-31,83.0,69.9,56.0,64.0,56.6,49.0,100,68,31,0.00,40.00,8,3,15,0.02
2012-6-1,70.0,63.5,56.0,57.0,53.2,50.0,89,70,50,0.00,40.00,13,10,23,0.00
2012-6-2,64.0,60.5,56.0,63.0,59.4,53.0,100,96,89,0.00,40.00,18,12,30,0.85
2012-6-3,76.0,62.2,52.0,61.0,53.9,-99.9,100,80,39,0.00,40.00,9,6,19,0.30
2012-6-4,60.0,53.5,50.0,53.0,50.0,47.0,99,88,71,0.00,40.00,14,8,27,0.09
2012-6-5,60.0,54.0,50.0,51.0,48.8,47.0,97,83,65,0.00,40.00,11,7,21,0.04
2012-6-6,63.0,56.5,47.0,59.0,53.8,46.0,99,91,79,0.00,40.00,9,4,13,0.22
2012-6-7,67.0,60.6,55.0,61.0,58.5,55.0,100,93,77,0.00,40.00,7,4,12,0.21
2012-6-8,68.0,62.2,53.0,62.0,58.9,53.0,100,90,79,0.00,40.00,10,5,15,0.18
2012-6-9,74.0,65.7,57.0,61.0,58.6,56.0,99,80,55,0.00,40.00,7,3,14,0.00
2012-6-10,76.0,66.1,57.0,62.0,56.1,-99.9,100,77,51,0.00,40.00,7,4,13,0.00
2012-6-11,68.0,62.4,54.0,59.0,55.9,53.0,97,80,69,0.00,40.00,9,5,14,0.00
2012-6-12,68.0,63.8,60.0,62.0,60.6,56.0,96,89,81,0.00,40.00,11,8,17,0.02
2012-6-13,64.0,62.8,61.0,63.0,61.6,60.0,99,96,92,0.00,40.00,12,6,17,0.68
2012-6-14,73.0,63.2,50.0,61.0,57.7,48.0,100,85,44,0.00,40.00,12,5,19,0.12
2012-6-15,75.0,64.3,50.0,54.0,50.6,47.0,97,64,42,0.00,40.00,14,8,23,0.02
2012-6-16,72.0,62.7,51.0,60.0,53.4,49.0,94,73,49,0.00,40.00,12,8,20,0.00
2012-6-17,68.0,60.2,56.0,55.0,50.0,-99.9,88,72,58,0.00,40.00,10,6,15,0.00
2012-6-18,68.0,60.9,50.0,57.0,54.0,49.0,97,79,64,0.00,40.00,8,5,13,0.00
2012-6-19,68.0,63.9,59.0,63.0,59.1,54.0,95,85,80,0.00,40.00,11,7,16,0.00
2012-6-20,87.0,76.5,65.0,72.0,68.5,64.0,97,78,61,0.00,40.00,9,6,18,0.00
2012-6-21,94.0,80.5,69.0,71.0,68.8,65.0,98,71,44,0.00,40.00,8,4,17,0.00
2012-6-22,87.0,75.9,66.0,74.0,68.6,64.0,98,80,58,0.00,40.00,13,4,22,0.00
2012-6-23,81.0,72.2,63.0,68.0,64.2,57.0,97,77,49,0.00,40.00,9,5,19,0.02
2012-6-24,83.0,70.5,57.0,64.0,57.4,47.0,95,67,29,0.00,40.00,9,6,19,0.02
2012-6-25,70.0,66.5,60.0,66.0,63.8,59.0,98,91,86,0.00,40.00,13,6,23,1.29
2012-6-26,74.0,65.0,56.0,59.0,55.4,53.0,95,73,52,0.00,40.00,9,6,23,0.02
2012-6-27,79.0,68.5,59.0,59.0,53.2,49.0,78,59,43,0.00,40.00,10,5,21,0.00
2012-6-28,80.0,69.1,54.0,65.0,58.6,49.0,92,71,46,0.00,40.00,10,5,17,0.00
2012-6-29,79.0,70.3,60.0,70.0,66.1,59.0,98,87,74,0.00,40.00,8,4,13,0.00
2012-6-30,89.0,75.3,63.0,69.0,65.3,60.0,97,74,41,0.00,40.00,9,5,17,0.00
2012-7-1,83.0,72.1,61.0,71.0,66.6,60.0,98,84,64,0.00,40.00,8,4,14,0.02
2012-7-2,85.0,70.9,62.0,68.0,64.7,61.0,98,83,51,0.00,40.00,8,4,13,0.30
2012-7-3,84.0,71.1,60.0,67.0,61.9,57.0,98,76,40,0.00,40.00,8,4,15,0.01
2012-7-4,81.0,72.8,68.0,72.0,68.3,65.0,97,87,66,0.00,40.00,8,5,17,0.13
2012-7-5,87.0,76.0,64.0,71.0,67.2,63.0,97,77,49,0.00,40.00,8,4,17,0.01
2012-7-6,80.0,71.7,62.0,69.0,65.8,61.0,98,83,61,0.00,40.00,9,4,15,0.00
2012-7-7,91.0,76.9,69.0,75.0,70.1,67.0,98,81,60,0.00,40.00,7,4,19,0.00
2012-7-8,88.0,75.9,64.0,70.0,66.4,63.0,97,74,50,0.00,40.00,8,4,14,0.00
2012-7-9,82.0,72.8,62.0,66.0,58.2,52.0,94,62,44,0.00,40.00,10,5,17,0.00
2012-7-10,80.0,69.7,59.0,67.0,60.5,54.0,96,76,41,0.00,40.00,8,4,13,0.00
2012-7-11,79.0,70.7,59.0,70.0,66.0,58.0,98,86,70,0.00,40.00,8,4,12,0.00
2012-7-12,78.0,70.3,58.0,70.0,64.4,57.0,98,83,67,0.00,40.00,8,4,13,0.00
2012-7-13,79.0,71.0,62.0,70.0,65.9,61.0,97,85,72,0.00,40.00,8,3,13,0.00
2012-7-14,86.0,75.9,65.0,69.0,66.1,64.0,97,74,48,0.00,40.00,10,5,17,0.00
2012-7-15,83.0,74.8,69.0,73.0,70.2,66.0,99,86,66,0.00,40.00,8,4,14,0.15
2012-7-16,87.0,78.2,70.0,73.0,71.2,68.0,99,81,64,0.00,40.00,10,4,17,0.33
2012-7-17,85.0,77.4,68.0,72.0,69.0,67.0,97,77,60,0.00,40.00,9,5,19,0.01
2012-7-18,88.0,78.2,71.0,76.0,71.4,69.0,96,80,62,0.00,40.00,8,4,16,0.01
2012-7-19,76.0,70.6,63.0,70.0,62.7,59.0,98,77,58,0.00,40.00,11,5,17,0.01
2012-7-20,68.0,65.0,62.0,64.0,61.1,58.0,97,87,72,0.00,40.00,7,4,15,0.29
2012-7-21,77.0,67.0,57.0,63.0,59.9,56.0,98,80,54,0.00,40.00,9,5,15,0.02
2012-7-22,75.0,67.1,56.0,65.0,60.8,55.0,98,82,62,0.00,40.00,11,5,14,0.01
2012-7-23,78.0,71.5,63.0,72.0,68.4,62.0,97,90,80,0.00,40.00,9,5,15,0.01
2012-7-24,91.0,78.4,71.0,74.0,69.3,58.0,98,76,46,0.00,40.00,11,5,24,0.01
2012-7-25,84.0,73.3,62.0,62.0,56.2,52.0,90,57,39,0.00,40.00,11,6,24,0.00
2012-7-26,78.0,72.1,65.0,72.0,68.5,64.0,95,89,78,0.00,40.00,10,6,19,0.03
2012-7-27,83.0,75.4,68.0,74.0,70.7,67.0,97,86,71,0.00,40.00,9,6,20,0.51
2012-7-28,77.0,70.5,66.0,71.0,68.2,65.0,98,93,81,0.00,40.00,12,6,19,0.97
2012-7-29,77.0,69.5,63.0,68.0,66.0,62.0,96,88,73,0.00,40.00,10,6,17,1.05
2012-7-30,76.0,69.5,60.0,66.0,63.7,59.0,98,83,69,0.00,40.00,7,5,11,0.28
2012-7-31,75.0,67.7,59.0,68.0,64.8,58.0,98,91,77,0.00,40.00,9,5,16,0.15
2012-8-1,79.0,71.1,60.0,71.0,67.3,59.0,98,89,77,0.00,40.00,9,4,13,0.14
2012-8-2,80.0,74.3,67.0,73.0,70.5,66.0,98,89,80,0.00,40.00,9,5,15,0.00
2012-8-3,83.0,76.0,70.0,76.0,73.1,69.0,99,91,77,0.00,40.00,8,5,16,0.00
2012-8-4,81.0,76.4,73.0,76.0,74.5,72.0,100,94,83,0.00,40.00,8,5,12,0.00
2012-8-5,83.0,77.0,74.0,77.0,75.0,73.0,100,94,83,0.00,40.00,15,8,19,0.00
2012-8-6,88.0,77.2,61.0,75.0,67.1,60.0,99,75,40,0.00,40.00,8,5,20,0.44
2012-8-7,79.0,70.2,59.0,69.0,64.2,58.0,97,82,61,0.00,40.00,7,4,11,0.01
2012-8-8,81.0,71.5,60.0,73.0,67.7,60.0,99,89,74,0.00,40.00,8,3,12,0.00
2012-8-9,82.0,74.1,66.0,76.0,71.8,65.0,99,93,81,0.00,40.00,8,4,12,0.00
2012-8-10,81.0,75.4,73.0,76.0,73.3,72.0,99,94,83,0.00,40.00,20,8,31,1.14
2012-8-11,81.0,75.1,73.0,74.0,73.0,69.0,99,94,75,0.00,40.00,9,5,17,0.11
2012-8-12,81.0,75.4,71.0,75.0,72.6,70.0,98,91,81,0.00,40.00,11,6,19,0.17
2012-8-13,82.0,73.7,64.0,71.0,67.8,64.0,99,83,61,0.00,40.00,8,4,15,0.06
2012-8-14,83.0,73.2,61.0,71.0,66.9,60.0,98,82,54,0.00,40.00,7,3,12,0.00
2012-8-15,81.0,71.4,66.0,72.0,69.3,65.0,99,93,71,0.00,40.00,11,3,18,0.36
2012-8-16,86.0,73.5,63.0,71.0,65.7,62.0,98,80,46,0.00,40.00,8,4,18,0.27
2012-8-17,82.0,72.6,60.0,73.0,67.7,59.0,98,86,65,0.00,40.00,9,4,15,0.00
2012-8-18,72.0,66.0,60.0,71.0,64.7,59.0,98,95,91,0.00,40.00,7,3,13,0.63
2012-8-19,79.0,66.4,56.0,63.0,58.8,54.0,98,79,48,0.00,40.00,8,4,14,0.01
2012-8-20,78.0,67.1,58.0,63.0,59.8,57.0,97,79,55,0.00,40.00,6,2,8,0.01
2012-8-21,79.0,69.1,59.0,67.0,63.0,58.0,98,83,61,0.00,40.00,7,3,14,0.00
2012-8-22,81.0,69.8,59.0,64.0,60.6,58.0,98,76,46,0.00,40.00,7,3,9,0.00
2012-8-23,79.0,69.4,58.0,71.0,65.1,57.0,98,88,72,0.00,40.00,9,4,15,0.00
2012-8-24,81.0,70.4,61.0,70.0,65.1,60.0,98,85,60,0.00,40.00,6,2,8,0.00
2012-8-25,81.0,71.6,64.0,68.0,64.0,60.0,99,80,49,0.00,40.00,9,5,15,0.00
2012-8-26,79.0,69.3,55.0,68.0,63.1,54.0,98,82,61,0.00,40.00,8,5,13,0.00
2012-8-27,81.0,69.0,54.0,72.0,65.1,53.0,98,89,69,0.00,40.00,10,6,15,0.00
2012-8-28,88.0,75.6,66.0,73.0,68.9,62.0,97,82,49,0.00,40.00,9,5,18,0.01
2012-8-29,77.0,66.9,53.0,62.0,54.3,47.0,95,67,39,0.00,40.00,8,4,17,0.01
2012-8-30,78.0,66.6,54.0,61.0,55.5,51.0,93,69,48,0.00,40.00,11,5,20,0.00
2012-8-31,85.0,73.3,61.0,70.0,64.3,57.0,93,75,49,0.00,40.00,9,5,19,0.00
2012-9-1,84.0,74.3,65.0,69.0,63.3,59.0,84,69,58,0.00,40.00,11,6,19,0.00
2012-9-2,77.0,68.1,58.0,65.0,60.2,57.0,97,78,51,0.00,40.00,6,4,10,0.00
2012-9-3,76.0,67.1,56.0,65.0,59.5,55.0,98,79,56,0.00,40.00,10,6,17,0.00
2012-9-4,75.0,71.5,68.0,73.0,68.9,63.0,97,92,84,0.00,40.00,10,6,15,0.25
2012-9-5,76.0,73.4,71.0,73.0,72.0,70.0,98,96,90,0.00,40.00,11,6,19,0.72
2012-9-6,76.0,70.0,62.0,71.0,65.5,61.0,98,86,69,0.00,40.00,7,4,14,0.27
2012-9-7,81.0,73.6,68.0,73.0,70.4,67.0,98,91,76,0.00,40.00,8,4,13,0.00
2012-9-8,79.0,74.7,69.0,74.0,71.8,68.0,98,91,81,0.00,40.00,17,8,24,0.07
2012-9-9,76.0,64.7,55.0,61.0,58.1,54.0,97,81,53,0.00,40.00,7,4,14,0.10
2012-9-10,72.0,61.9,48.0,56.0,50.0,46.0,97,68,42,0.00,40.00,10,7,23,0.00
2012-9-11,70.0,57.6,46.0,52.0,46.9,43.0,96,71,39,0.00,40.00,8,5,14,0.00
2012-9-12,75.0,62.6,49.0,62.0,56.4,48.0,98,82,61,0.00,40.00,9,5,14,0.00
2012-9-13,75.0,64.9,51.0,66.0,58.9,50.0,97,82,63,0.00,40.00,9,4,15,0.00
2012-9-14,75.0,65.7,52.0,67.0,61.4,51.0,98,87,71,0.00,40.00,10,4,14,0.00
2012-9-15,76.0,65.3,52.0,66.0,55.7,47.0,97,75,42,0.00,40.00,10,5,20,0.00
2012-9-16,75.0,59.7,46.0,53.0,48.1,45.0,95,71,38,0.00,40.00,7,4,17,0.00
2012-9-17,72.0,58.7,42.0,58.0,51.0,41.0,97,79,49,0.00,40.00,9,4,14,0.00
2012-9-18,73.0,67.1,52.0,68.0,63.1,51.0,97,87,78,0.00,40.00,21,10,33,0.00
2012-9-19,74.0,65.7,55.0,69.0,54.1,45.0,97,70,39,0.00,40.00,24,8,37,0.98
2012-9-20,71.0,59.5,51.0,51.0,48.6,45.0,92,69,46,0.00,40.00,11,7,21,0.01
2012-9-21,69.0,57.7,49.0,55.0,51.9,47.0,95,82,60,0.00,40.00,11,6,16,0.00
2012-9-22,70.0,62.2,56.0,67.0,57.0,-99.9,97,87,70,0.00,40.00,14,5,18,0.00
2012-9-23,73.0,63.1,45.0,66.0,52.6,42.0,96,73,38,0.00,40.00,10,5,19,0.05
2012-9-24,69.0,54.5,42.0,47.0,43.8,40.0,95,71,37,0.00,40.00,9,4,17,0.00
2012-9-25,72.0,57.7,39.0,58.0,48.4,38.0,97,74,47,0.00,40.00,12,7,26,0.00
2012-9-26,72.0,67.4,64.0,65.0,61.6,56.0,95,82,75,0.00,40.00,13,9,22,0.00
2012-9-27,74.0,66.0,60.0,65.0,59.9,52.0,96,82,59,0.00,40.00,8,4,14,0.00
2012-9-28,66.0,62.6,59.0,65.0,55.9,49.0,95,79,65,0.00,40.00,11,8,22,0.03
2012-9-29,65.0,58.3,56.0,64.0,56.7,54.0,96,94,89,0.00,40.00,9,5,14,0.16
2012-9-30,64.0,58.0,55.0,57.0,54.7,50.0,96,89,71,0.00,40.00,7,5,17,0.13
2012-10-1,69.0,59.1,49.0,55.0,50.3,46.0,96,74,57,0.00,40.00,12,6,27,0.02
2012-10-2,69.0,60.2,49.0,62.0,56.8,48.0,97,89,70,0.00,40.00,5,2,7,0.09
2012-10-3,72.0,65.3,62.0,67.0,63.6,61.0,98,95,84,0.00,40.00,6,4,10,0.18
2012-10-4,71.0,64.9,62.0,64.0,62.2,61.0,98,92,78,0.00,40.00,6,4,11,0.04
2012-10-5,78.0,65.7,57.0,64.0,61.3,56.0,98,87,53,0.00,40.00,9,3,16,0.02
2012-10-6,74.0,63.1,51.0,66.0,58.9,45.0,98,87,74,0.00,40.00,11,6,21,0.00
2012-10-7,63.0,49.8,40.0,51.0,44.2,39.0,97,83,43,0.00,40.00,5,2,10,0.11
2012-10-8,58.0,49.0,37.0,48.0,44.0,36.0,96,84,56,0.00,40.00,7,3,14,0.03
2012-10-9,59.0,54.2,49.0,52.0,49.9,46.0,95,86,76,0.00,40.00,13,9,22,0.01
2012-10-10,66.0,58.4,53.0,63.0,55.1,47.0,97,89,70,0.00,40.00,10,6,18,0.15
2012-10-11,63.0,52.1,42.0,47.0,38.4,34.0,86,62,34,0.00,40.00,10,5,22,0.02
2012-10-12,61.0,49.7,39.0,47.0,38.6,25.0,92,67,47,0.00,40.00,11,6,20,0.00
2012-10-13,54.0,41.5,27.0,35.0,27.3,22.0,89,61,30,0.00,40.00,8,4,17,0.00
2012-10-14,68.0,60.8,51.0,60.0,51.3,35.0,90,71,55,0.00,40.00,14,11,27,0.00
2012-10-15,66.0,63.9,63.0,62.0,60.8,58.0,97,90,84,0.00,40.00,12,10,22,0.09
2012-10-16,63.0,53.8,39.0,62.0,43.4,34.0,96,71,39,0.00,40.00,11,6,25,0.18
2012-10-17,59.0,47.0,36.0,43.0,37.7,33.0,95,72,45,0.00,40.00,8,4,14,0.01
2012-10-18,66.0,52.8,35.0,57.0,46.3,34.0,97,81,55,0.00,40.00,8,4,15,0.00
2012-10-19,66.0,62.8,58.0,63.0,60.3,57.0,97,91,84,0.00,40.00,16,9,23,0.08
2012-10-20,73.0,63.8,55.0,64.0,60.5,45.0,97,90,66,0.00,40.00,16,6,30,0.29
2012-10-21,67.0,53.5,41.0,45.0,40.7,38.0,95,66,36,0.00,40.00,8,3,19,0.04
2012-10-22,67.0,55.8,43.0,43.0,40.7,39.0,92,60,37,0.00,40.00,10,5,31,0.00
2012-10-23,65.0,54.5,43.0,52.0,44.9,39.0,94,72,46,0.00,40.00,8,4,12,0.09
2012-10-24,56.0,53.3,50.0,52.0,47.0,44.0,95,80,66,0.00,40.00,8,5,13,0.09
2012-10-25,63.0,51.7,42.0,48.0,44.5,40.0,94,78,56,0.00,40.00,6,4,12,0.00
2012-10-26,66.0,53.4,42.0,55.0,48.0,41.0,97,84,58,0.00,40.00,7,2,9,0.00
2012-10-27,69.0,57.3,46.0,56.0,49.9,43.0,97,78,53,0.00,40.00,12,5,19,0.00
2012-10-28,59.0,55.6,53.0,51.0,49.8,47.0,88,81,73,0.00,40.00,19,14,37,0.00
2012-10-29,66.0,59.6,54.0,61.0,56.2,49.0,93,88,79,0.00,40.00,40,23,75,0.53
2012-10-30,66.0,61.5,57.0,59.0,56.7,55.0,95,85,73,0.00,40.00,15,8,28,0.22
2012-10-31,58.0,54.0,51.0,57.0,47.3,40.0,97,79,65,0.00,40.00,11,7,21,0.20
2012-11-1,57.0,50.7,43.0,43.0,40.2,37.0,82,67,57,0.00,40.00,11,6,22,0.01
2012-11-2,55.0,47.5,42.0,42.0,37.6,30.0,92,70,48,0.00,40.00,7,3,20,0.00
2012-11-3,57.0,45.9,34.0,35.0,31.6,28.0,78,59,39,0.00,40.00,8,5,20,0.00
2012-11-4,57.0,42.6,31.0,34.0,30.4,27.0,85,64,40,0.00,40.00,9,4,18,0.00
2012-11-5,48.0,38.4,30.0,31.0,23.9,16.0,91,58,36,0.00,40.00,11,6,21,0.00
2012-11-6,45.0,33.2,23.0,25.0,17.8,15.0,75,55,31,0.00,40.00,9,5,17,0.00
2012-11-7,46.0,38.9,33.0,37.0,31.7,25.0,93,76,62,0.00,40.00,28,18,52,0.47
2012-11-8,42.0,37.8,33.0,34.0,31.8,28.0,88,79,71,0.00,40.00,25,20,51,0.43
2012-11-9,56.0,42.9,33.0,31.0,24.4,18.0,71,51,25,0.00,40.00,12,6,27,0.25
2012-11-10,58.0,43.4,31.0,41.0,33.5,24.0,95,70,41,0.00,40.00,6,2,14,0.00
2012-11-11,62.0,55.1,42.0,52.0,47.6,41.0,95,77,63,0.00,40.00,9,7,15,0.00
2012-11-12,64.0,54.5,42.0,59.0,52.3,41.0,98,92,79,0.00,40.00,11,4,16,0.00
2012-11-13,60.0,52.0,42.0,59.0,48.6,32.0,96,88,68,0.00,40.00,16,9,24,0.06
2012-11-14,48.0,40.5,30.0,32.0,25.8,-99.9,82,59,39,0.00,40.00,14,9,23,0.01
2012-11-15,42.0,37.8,33.0,32.0,29.2,24.0,79,71,67,0.00,40.00,10,6,20,0.00
2012-11-16,48.0,40.5,27.0,33.0,28.7,24.0,88,64,45,0.00,40.00,9,5,15,0.00
2012-11-17,52.0,40.6,27.0,34.0,29.7,23.0,88,66,49,0.00,40.00,14,6,20,0.00
2012-11-18,52.0,39.9,28.0,34.0,30.6,26.0,94,71,46,0.00,40.00,12,6,19,0.00
2012-11-19,50.0,42.1,37.0,38.0,34.5,31.0,86,75,63,0.00,40.00,11,8,19,0.00
2012-11-20,52.0,41.0,33.0,39.0,34.8,31.0,93,79,59,0.00,40.00,10,6,17,0.00
2012-11-21,53.0,43.5,35.0,40.0,35.7,31.0,93,75,58,0.00,40.00,13,7,20,0.00
2012-11-22,56.0,45.3,31.0,42.0,39.0,29.0,94,80,54,0.00,40.00,11,6,16,0.00
2012-11-23,55.0,46.7,29.0,48.0,42.1,28.0,97,85,66,0.00,40.00,8,5,14,0.00
2012-11-24,50.0,43.8,33.0,48.0,26.5,13.0,93,54,28,0.00,40.00,12,7,28,0.00
2012-11-25,43.0,35.7,30.0,21.0,16.9,15.0,59,47,32,0.00,40.00,9,6,26,0.00
2012-11-26,45.0,34.7,29.0,23.0,20.6,18.0,69,56,41,0.00,40.00,8,4,15,0.00
2012-11-27,39.0,34.4,28.0,35.0,30.4,22.0,95,86,62,0.00,40.00,8,5,15,0.24
2012-11-28,41.0,34.1,26.0,32.0,28.3,22.0,94,80,58,0.00,40.00,10,6,20,0.15
2012-11-29,45.0,35.5,23.0,29.0,23.5,19.0,87,63,39,0.00,40.00,10,5,18,0.00
2012-11-30,41.0,36.2,32.0,29.0,22.4,16.0,69,58,43,0.00,40.00,12,7,20,0.00
2012-12-1,40.0,35.7,33.0,37.0,29.9,22.0,90,80,60,0.00,40.00,10,9,18,0.00
2012-12-2,56.0,47.5,38.0,51.0,44.0,36.0,93,88,76,0.00,40.00,9,5,17,0.00
2012-12-3,62.0,51.8,38.0,49.0,43.8,36.0,93,76,48,0.00,40.00,8,5,17,0.00
2012-12-4,53.0,45.7,32.0,52.0,44.2,30.0,97,94,89,0.00,40.00,6,3,9,0.01
2012-12-5,58.0,49.9,36.0,53.0,39.3,18.0,97,70,44,0.00,40.00,11,7,27,0.04
2012-12-6,44.0,32.3,21.0,22.0,13.6,-99.9,88,51,34,0.00,40.00,9,4,17,0.01
2012-12-7,48.0,39.4,22.0,44.0,34.4,19.0,96,83,60,0.00,40.00,5,2,9,0.06
2012-12-8,51.0,47.6,45.0,50.0,46.6,44.0,98,97,96,0.00,40.00,6,3,10,0.69
2012-12-9,52.0,46.2,37.0,48.0,39.8,34.0,96,80,57,0.00,40.00,12,5,19,0.01
2012-12-10,56.0,52.7,45.0,56.0,51.9,44.0,99,97,94,0.00,40.00,13,8,22,2.87
2012-12-11,54.0,45.6,35.0,54.0,38.3,21.0,99,77,49,0.00,40.00,7,5,15,0.54
2012-12-12,43.0,34.8,27.0,27.0,21.4,19.0,83,59,40,0.00,40.00,10,4,20,0.06
2012-12-13,48.0,34.8,28.0,26.0,22.6,20.0,82,64,34,0.00,40.00,7,4,13,0.00
2012-12-14,48.0,36.2,25.0,33.0,26.2,21.0,86,68,47,0.00,40.00,12,5,21,0.00
2012-12-15,46.0,35.9,27.0,30.0,26.4,23.0,88,70,49,0.00,40.00,8,4,14,0.00
2012-12-16,41.0,38.9,37.0,40.0,32.7,28.0,95,80,65,0.00,40.00,16,12,26,0.37
2012-12-17,47.0,43.5,40.0,46.0,42.3,39.0,97,95,94,0.00,40.00,13,10,26,0.58
2012-12-18,52.0,47.6,44.0,51.0,46.2,42.0,97,95,91,0.00,40.00,9,6,18,0.55
2012-12-19,49.0,43.6,40.0,45.0,31.3,28.0,95,63,48,0.00,40.00,14,9,31,0.01
2012-12-20,47.0,38.2,27.0,36.0,29.3,24.0,90,72,51,0.00,40.00,9,5,17,0.00
2012-12-21,54.0,46.1,40.0,52.0,40.4,27.0,97,81,59,0.00,40.00,23,15,38,0.78
2012-12-22,40.0,37.1,32.0,33.0,24.7,16.0,84,62,38,0.00,40.00,13,9,31,0.02
2012-12-23,42.0,36.6,33.0,25.0,20.7,16.0,69,52,41,0.00,40.00,10,6,24,0.01
2012-12-24,43.0,31.7,20.0,28.0,19.5,16.0,84,62,40,0.00,40.00,8,2,13,0.00
2012-12-25,37.0,33.6,29.0,34.0,30.3,22.0,95,88,76,0.00,40.00,10,7,16,0.12
2012-12-26,39.0,31.7,25.0,36.0,23.2,14.0,93,71,59,0.00,40.00,26,10,44,0.48
2012-12-27,50.0,41.9,33.0,49.0,39.7,26.0,97,92,76,0.00,40.00,27,14,49,1.21
2012-12-28,39.0,31.8,25.0,26.0,20.8,18.0,86,64,48,0.00,40.00,13,6,25,0.01
2012-12-29,36.0,30.3,23.0,32.0,26.6,20.0,96,86,77,0.00,40.00,13,6,23,0.25
2012-12-30,32.0,27.8,22.0,31.0,20.2,11.0,95,74,56,0.00,40.00,10,7,24,0.17
2012-12-31,37.0,29.8,19.0,27.0,18.4,9.0,69,62,55,0.00,40.00,9,5,20,0.16
2013-1-1,39.0,34.6,23.0,25.0,19.6,4.0,65,54,42,0.00,40.00,8,7,21,0.14